Theta_e
335 336 336 338 335 334 335 335 337 340 340 343 343 343 346 344 343 343 341 342 342 343 344 341 339 337 339 342 345 349 351 350 349 348 346 344 343 341 340 337 336 334 333 334
335 336 337 337 335 334 334 336 337 338 335 340 342 344 344 345 344 343 343 343 342 344 345 343 341 340 339 341 343 345 349 350 348 346 345 344 340 339 338 337 335 333 333 333
336 336 337 337 334 334 335 335 334 335 334 337 340 348 346 342 341 344 342 342 344 342 342 346 344 342 340 340 342 344 345 347 347 345 342 339 339 338 337 336 336 333 333 333
334 335 335 335 334 334 336 334 333 333 339 344 342 355 352 348 345 344 346 348 342 341 342 342 342 347 344 341 342 342 344 345 347 344 342 339 339 337 336 337 335 333 333 333
334 334 334 335 334 333 335 333 333 339 338 343 345 344 351 342 341 340 343 340 340 339 337 337 339 340 344 346 343 342 344 345 345 343 341 343 338 338 337 336 335 335 334 333
333 334 333 333 332 332 334 336 339 343 344 351 346 347 354 349 346 342 341 335 335 336 337 338 338 338 340 346 345 343 344 345 346 344 344 342 341 340 339 336 337 336 335 335
332 333 333 333 333 333 335 339 340 344 355 349 344 346 349 343 341 341 335 336 336 336 336 338 340 338 340 341 342 344 344 345 345 344 344 343 341 340 340 339 336 338 335 336
333 335 334 333 332 333 333 335 340 345 343 340 342 351 346 341 338 339 335 337 337 337 337 336 339 337 336 338 341 340 342 344 344 343 343 342 341 341 340 339 337 338 337 336
334 336 334 333 333 333 334 334 336 343 337 341 348 348 346 341 343 342 339 339 339 339 337 335 337 336 334 337 340 339 339 342 344 345 343 342 341 340 339 339 337 338 337 337
333 336 336 334 333 333 333 335 341 339 348 346 349 350 352 345 345 344 343 340 340 339 335 333 335 337 335 334 336 339 339 341 345 343 342 342 341 341 340 339 338 338 337 337
332 336 336 334 333 334 334 336 339 342 345 345 345 341 343 341 341 342 341 340 340 338 334 332 334 335 337 336 334 339 339 344 343 342 344 342 342 341 339 339 338 339 336 339
332 341 335 334 335 337 336 338 337 340 345 345 346 345 340 340 341 339 339 341 341 337 335 333 333 335 338 336 336 340 339 340 340 339 339 340 340 341 340 338 340 339 338 337
336 332 334 337 336 338 336 336 341 338 346 347 339 347 343 340 338 339 342 342 341 337 336 335 334 335 338 336 337 339 339 340 340 339 338 336 337 337 338 338 341 339 338 338
344 342 339 339 337 334 338 338 336 336 339 338 336 337 346 344 342 349 344 341 338 336 336 336 336 336 336 335 335 339 339 339 338 337 335 336 334 335 336 338 338 337 338 337
335 338 335 335 334 335 333 332 332 334 335 338 338 338 346 345 347 345 345 341 336 336 335 335 337 338 335 333 335 339 339 339 337 336 335 334 332 333 333 336 338 339 339 338
342 343 338 336 335 334 332 335 334 333 334 336 339 339 343 339 335 341 343 342 337 337 335 335 336 338 336 333 335 337 338 338 336 335 333 330 331 328 330 330 331 335 336 336
351 347 348 340 340 338 341 342 342 340 340 337 336 338 344 345 340 336 336 342 338 337 335 334 336 338 335 333 334 334 335 336 335 333 331 328 329 326 324 324 326 327 329 330
351 356 345 342 340 339 342 339 340 340 340 335 336 336 344 343 343 338 338 338 338 336 335 335 336 335 333 333 334 333 334 334 333 333 329 326 325 325 324 324 325 326 326 326
349 352 342 346 342 339 340 342 341 342 340 338 342 341 341 340 342 342 339 339 339 337 336 336 335 335 335 335 334 333 333 334 332 332 328 326 325 324 323 324 325 325 327 327
347 354 345 341 341 345 349 337 339 339 336 345 339 338 334 338 342 344 341 339 338 336 335 336 335 337 337 336 336 334 334 334 332 332 329 326 326 325 324 323 326 326 327 326
350 353 352 349 339 339 341 339 340 339 356 351 344 339 338 344 349 349 341 340 338 338 338 337 336 336 338 336 335 335 335 334 333 332 329 328 327 326 323 324 326 326 326 326
352 351 346 345 345 346 339 338 345 350 354 348 346 351 352 350 343 344 343 342 342 340 336 337 337 338 339 338 336 336 336 334 333 332 330 329 328 324 323 325 326 327 327 326
346 341 347 340 346 348 344 344 344 348 346 346 353 349 348 349 348 344 345 346 344 341 340 338 338 340 340 338 336 336 335 332 333 331 331 330 328 325 324 324 326 326 326 327
339 341 343 344 343 341 341 339 344 344 343 342 344 348 346 349 346 347 346 347 339 341 341 341 340 339 341 339 337 336 335 332 332 331 331 331 328 326 325 325 325 326 322 322
340 342 343 343 343 339 340 345 344 340 339 338 339 342 343 345 346 343 344 347 345 341 339 340 342 342 341 340 337 336 335 333 333 331 331 329 328 326 325 326 325 324 323 322
334 341 339 343 340 343 342 343 339 338 337 337 338 339 339 340 342 343 344 345 343 341 340 342 342 344 342 341 336 335 335 334 333 332 326 325 322 319 322 323 322 322 321 320
Wind_Speed
17 16 2 28 9 12 14 16 16 9 13 17 12 10 6 15 8 8 5 9 7 7 15 12 6 5 5 4 5 7 9 10 13 13 14 15 17 14 10 11 13 14 11 12
17 8 12 24 12 15 14 16 14 12 13 7 10 11 16 22 19 8 11 10 9 9 11 13 12 7 3 5 4 5 7 10 12 14 14 16 16 15 15 10 13 14 11 12
17 9 10 20 12 16 16 13 15 17 20 5 14 15 11 6 24 23 12 5 10 2 3 10 11 12 12 11 7 7 8 10 12 14 12 7 2 2 1 7 10 13 14 13
16 14 10 7 14 17 14 19 20 19 18 10 20 4 7 9 13 21 21 35 11 8 9 6 6 16 15 15 13 10 10 10 11 13 9 9 7 9 13 10 13 16 19 18
13 17 16 10 12 15 15 18 15 12 11 7 9 1 3 5 6 23 15 7 4 5 7 5 3 5 10 17 14 11 10 9 7 10 14 5 10 13 12 6 11 10 18 16
20 14 17 9 12 14 11 14 2 10 4 7 6 8 3 9 9 18 7 5 2 4 8 13 18 18 18 9 10 10 13 9 7 7 8 11 9 7 10 6 12 10 13 17
19 19 17 12 9 18 10 14 9 4 2 5 8 8 8 17 16 23 10 10 4 6 13 12 14 15 18 15 16 7 14 13 9 7 8 9 11 11 13 11 14 15 16 16
16 8 10 6 4 8 13 13 7 14 10 14 7 2 3 14 21 23 5 8 5 10 9 8 13 13 12 7 10 9 5 12 10 11 10 11 12 13 13 14 17 16 18 11
13 9 10 5 5 12 7 10 13 15 14 4 8 8 11 6 17 24 12 11 8 6 5 9 16 14 13 11 10 10 9 2 5 6 3 6 11 15 16 15 13 17 16 13
13 9 9 8 3 11 12 9 7 5 11 7 7 6 6 9 20 14 24 12 9 3 10 7 12 15 12 13 15 14 11 7 11 9 6 6 7 12 13 13 14 14 13 14
8 6 13 16 9 13 4 4 1 3 3 2 2 6 6 4 5 14 25 5 8 8 8 8 11 13 13 13 14 13 11 15 9 4 2 4 4 8 10 10 11 11 12 13
10 6 9 15 9 14 10 13 12 4 5 4 3 3 13 19 20 24 16 8 9 4 8 10 10 12 16 14 12 12 14 13 10 9 7 3 6 9 6 8 10 9 10 10
5 2 7 15 11 3 6 7 18 6 5 12 11 2 19 23 20 20 11 11 11 12 8 11 7 11 15 13 11 11 9 9 8 8 11 14 13 11 9 9 8 7 9 10
6 5 8 11 14 10 8 16 16 4 4 10 12 12 8 10 13 22 6 7 10 10 9 9 7 10 14 13 8 10 7 7 8 7 4 6 9 10 13 11 7 4 6 8
1 5 11 15 19 18 15 14 16 14 10 11 12 15 14 8 7 11 6 11 4 11 10 8 8 7 11 10 7 10 7 6 8 9 8 6 8 13 13 14 9 5 3 3
5 7 12 16 18 17 19 19 13 16 13 9 13 12 3 6 8 11 27 11 7 12 9 7 6 7 8 6 5 7 4 5 5 6 9 8 6 8 7 8 10 8 5 4
7 7 8 15 18 13 14 7 18 13 15 16 14 13 7 6 4 15 18 10 8 12 8 5 6 9 7 1 3 4 3 2 3 3 6 5 2 5 4 5 7 8 7 7
8 7 9 11 14 19 7 11 8 6 20 9 12 7 14 10 19 6 21 9 10 9 7 5 8 9 5 1 2 2 3 4 4 3 3 3 3 4 4 3 4 6 6 8
10 8 10 11 14 18 6 6 6 6 10 12 12 20 7 9 7 5 7 11 10 6 6 7 8 9 5 3 2 1 3 3 8 4 2 6 4 4 5 5 6 7 7 8
13 10 8 11 16 19 7 9 18 25 5 13 19 21 22 26 7 9 8 12 10 8 7 7 8 13 8 5 5 3 3 6 9 2 3 8 5 3 6 5 5 7 8 11
3 4 4 16 14 17 11 15 14 9 5 11 8 12 20 11 4 5 3 4 5 9 10 11 8 7 10 6 6 5 8 8 5 2 7 10 5 2 10 4 4 8 9 10
9 7 5 8 9 11 12 16 9 5 6 9 9 9 10 11 7 6 9 7 9 7 7 9 9 11 14 12 10 11 13 9 8 7 11 8 4 4 7 3 5 10 12 15
12 5 6 7 11 9 8 6 12 8 6 8 10 9 11 11 12 10 8 9 10 8 4 14 12 17 16 17 15 13 12 10 9 9 8 8 5 5 5 7 10 14 14 7
7 16 9 6 10 6 8 7 5 9 6 7 9 11 10 12 11 13 10 7 5 13 8 15 13 13 16 20 18 17 13 10 9 7 7 8 6 7 9 11 10 10 2 3
4 9 19 9 6 6 25 14 11 9 9 11 11 11 13 11 11 11 12 9 8 10 13 15 14 16 18 20 20 17 14 13 12 8 1 11 7 3 13 14 11 14 10 8
12 10 9 7 8 8 7 5 8 7 11 11 13 10 9 13 15 15 12 12 13 13 15 14 17 18 21 25 21 16 16 14 8 13 15 8 3 10 14 14 15 11 11 11
Wind_Direction
267 258 32 298 338 339 312 320 348 112 154 191 60 89 150 164 144 151 187 175 210 216 131 137 151 145 134 139 158 179 183 186 176 178 188 223 219 213 221 237 223 210 198 225
255 266 8 310 317 304 291 309 346 308 1 11 101 64 41 29 322 183 203 170 240 199 154 149 166 158 181 163 187 187 193 187 192 205 206 222 219 220 213 225 229 213 213 224
275 269 195 248 296 300 317 318 346 332 325 330 12 59 51 50 293 316 325 222 174 299 54 167 184 165 173 174 182 198 202 195 203 221 215 239 335 60 220 262 233 203 218 226
273 281 267 300 293 283 308 347 331 329 360 46 1 67 81 238 283 320 93 256 179 141 184 164 186 186 182 180 178 190 194 199 211 230 255 209 218 239 237 246 232 225 222 221
268 288 314 280 316 333 315 322 319 21 10 350 352 24 257 306 249 246 266 100 109 208 133 183 149 124 162 172 164 183 188 194 217 216 248 243 220 264 270 255 284 220 207 213
287 286 289 275 283 302 301 288 227 51 26 340 205 175 270 228 235 254 167 97 206 228 148 78 53 51 47 122 151 164 172 182 209 231 245 263 292 268 290 274 285 238 225 218
257 252 246 255 312 285 237 299 317 270 38 237 238 233 185 221 241 278 157 165 123 22 59 64 57 36 58 40 30 355 168 169 192 221 239 250 254 262 275 269 268 269 255 223
287 335 267 164 251 318 317 299 310 321 327 350 177 97 232 275 306 288 161 121 81 55 55 68 86 52 41 53 51 13 55 161 187 206 220 237 250 245 255 255 250 263 261 257
283 317 149 198 307 300 321 319 345 333 289 326 68 4 306 316 277 282 182 116 102 95 96 70 95 76 49 56 93 46 26 114 129 100 168 253 253 245 253 258 275 256 252 257
268 311 286 120 220 267 246 294 329 335 316 19 145 207 228 188 237 328 337 136 115 197 78 68 89 91 60 39 53 52 11 49 71 32 344 312 287 270 264 262 266 253 255 263
264 270 289 314 279 277 197 230 253 301 314 12 294 125 125 93 161 273 248 148 138 96 61 62 84 77 75 48 29 55 21 71 49 4 280 287 315 298 273 269 274 256 257 261
232 228 269 281 333 36 29 336 302 311 336 219 213 166 191 181 207 224 249 134 81 54 74 67 63 63 80 60 43 55 46 36 9 350 311 66 322 324 319 305 267 263 248 252
291 259 259 264 236 44 316 270 258 248 229 276 304 100 196 205 214 238 196 127 142 108 73 74 36 55 77 64 59 58 46 16 12 338 47 31 12 358 342 340 307 281 244 260
13 300 270 288 316 300 219 235 269 288 255 288 294 333 102 103 77 314 130 132 88 92 81 81 53 52 69 59 43 73 53 34 355 351 5 45 16 360 22 9 356 303 268 270
204 263 272 278 284 291 301 289 283 290 287 277 321 336 70 81 148 230 184 103 137 106 80 63 64 56 45 46 45 75 51 42 343 346 344 79 39 36 22 23 34 27 329 307
185 265 264 279 283 281 279 290 279 277 292 306 323 300 220 202 64 101 264 139 140 84 71 64 65 74 60 29 36 63 51 38 350 358 347 40 48 50 31 26 25 30 13 347
190 253 265 270 287 320 305 301 351 346 338 329 332 335 239 291 156 213 252 152 111 102 96 83 86 89 92 22 72 46 41 349 303 348 342 55 43 90 46 16 9 5 358 348
282 255 266 279 280 275 3 112 192 7 315 312 311 287 216 120 245 18 266 126 92 98 112 110 103 112 117 89 84 4 348 278 347 274 350 344 329 11 17 17 356 339 340 340
202 260 284 283 282 279 224 37 308 165 285 344 28 8 348 213 169 200 141 95 89 107 134 149 126 132 146 177 124 280 290 334 288 98 299 285 315 356 346 346 343 328 324 311
205 198 248 269 284 290 253 121 216 248 247 37 80 43 331 296 314 57 81 120 138 150 176 157 150 138 173 199 171 233 270 266 271 170 235 269 290 295 310 302 313 310 308 302
85 348 72 295 253 261 29 181 253 279 38 343 105 178 209 253 60 103 90 121 141 184 189 170 171 184 173 197 192 220 242 250 247 216 245 255 260 257 279 256 316 300 292 286
182 149 181 240 313 246 354 348 2 332 323 327 337 343 335 324 299 198 189 200 199 197 204 196 201 186 189 195 204 221 237 241 238 243 248 267 261 280 297 339 294 283 284 279
245 280 168 153 217 208 204 177 228 232 359 336 336 315 312 302 304 297 288 223 221 194 215 228 215 190 190 191 209 229 239 245 242 254 244 258 247 265 277 275 268 279 295 270
320 20 298 290 307 296 251 291 94 67 30 334 319 305 295 297 302 308 300 305 224 246 231 232 215 215 192 190 199 215 232 237 240 246 267 262 243 255 231 257 290 295 323 59
259 91 238 279 316 50 292 49 41 23 347 334 321 318 319 298 289 290 297 290 294 300 273 251 237 219 204 194 193 203 214 230 229 222 42 75 41 339 269 260 258 262 244 219
300 299 316 315 306 316 307 88 37 318 298 303 288 289 327 325 319 316 310 306 298 295 296 287 248 224 210 199 170 189 215 222 205 79 59 25 298 251 265 279 276 259 245 252